Powrót do katalogu

COSMOS 2211

AktywnyMilitariaPO
NORAD 22182·PAYLOAD·🇷🇺 Russia

Wystrzelony Oct 20, 1992 z Plesetsk Cosmodrome

Loading…

Następne Przeloty (najbliższe 24 godziny)

TLE

ŚwieżeSource: Space-Track

Epoka: Sep 14, 2026, 11:53 UTC

1 22182U 92068A   26257.49580963  .00000002  00000-0 -49571-4 0  9999
2 22182  82.5898 264.4325 0006712 314.8025 213.0918 12.64067665564026

Śledź COSMOS 2211 w czasie rzeczywistym z AllMySat

Download on the App Store